Location: Newark
(52.8662°N, 8.1982°W)
Time: 12:06:49
(UTC+00:00)

XW-2D - Visible Passes

Search period start: 23 January 2020 00:00
Search period end: 02 February 2020 00:00
Orbit: 507 x 528 km, 97.5° (Epoch: 23 January)

Date Brightness Start Highest point End Pass type
(mag) Time Alt. Az. Time Alt. Az. Time Alt. Az.
23 Jan ? 06:17:28 10° NNE 06:21:06 44° E 06:24:39 10° S visible
23 Jan ? 07:52:05 10° NNW 07:54:57 21° WNW 07:57:49 10° WSW visible
23 Jan ? 18:38:52 10° SW 18:41:30 18° W 18:44:09 10° NW visible
24 Jan ? 06:03:22 10° NNE 06:06:45 31° E 06:10:06 10° SSE visible
24 Jan ? 07:37:34 10° N 07:40:48 28° WNW 07:44:01 10° SW visible
24 Jan ? 18:24:00 10° SSW 18:27:07 24° W 18:30:15 10° NW visible
25 Jan ? 05:49:21 10° NE 05:52:23 23° E 05:55:24 10° SSE visible
25 Jan ? 07:23:08 10° N 07:26:38 37° WNW 07:30:05 10° SW visible
25 Jan ? 18:09:19 10° SSW 18:12:46 33° W 18:16:14 10° NNW visible
26 Jan ? 05:35:30 10° NE 05:38:00 17° E 05:40:29 10° SE visible
26 Jan ? 07:08:46 10° N 07:12:25 52° WNW 07:16:03 10° SSW visible
26 Jan ? 17:54:47 10° S 17:58:27 46° W 18:02:06 10° NNW visible
27 Jan ? 05:21:58 10° ENE 05:23:35 12° E 05:25:11 10° ESE visible
27 Jan ? 06:54:27 10° N 06:58:11 75° WNW 07:01:54 10° SSW visible
27 Jan ? 17:40:23 10° S 17:44:08 65° WSW 17:47:55 10° NNW visible
28 Jan ? 06:40:10 10° NNE 06:43:56 78° ESE 06:47:39 10° S visible
28 Jan ? 19:03:39 10° W 19:04:34 11° W 19:05:28 10° WNW visible
29 Jan ? 06:25:57 10° NNE 06:29:38 54° E 06:33:17 10° S visible
29 Jan ? 18:47:55 10° SW 18:50:07 15° W 18:52:19 10° NW visible
30 Jan ? 06:11:47 10° NNE 06:15:19 38° E 06:18:49 10° SSE visible
30 Jan ? 18:32:53 10° SW 18:35:43 20° W 18:38:33 10° NW visible
31 Jan ? 05:57:43 10° NE 06:00:58 27° E 06:04:12 10° SSE visible
31 Jan ? 07:31:45 10° N 07:35:05 31° WNW 07:38:24 10° SW visible
31 Jan ? 18:18:05 10° SSW 18:21:20 27° W 18:24:35 10° NW visible
01 Feb ? 05:43:45 10° NE 05:46:35 20° E 05:49:24 10° SE visible
01 Feb ? 07:17:20 10° N 07:20:53 43° WNW 07:24:26 10° SW visible
01 Feb ? 18:03:28 10° SSW 18:06:59 37° W 18:10:31 10° NNW visible
